Date String (YYYY-MM-DD hh:mm:ss) UTC,Instrument flags,Ambient pressure (hPa),Sample flow (lpm),Bypass flow (lpm),Sample temperature (°C),Ambient temperature (°C),ASC tube jacket temperature (°C),LED temperature (°C),Box temperature (°C),Sample RH (%),Span deviation,Mass concentration (μg/m³),Mass concentration (μg/m³),Mass concentration (μg/m³)
DateTimeUTC,F1_M11,P_M11,Q1_M11,Q2_M11,T1_M11,T2_M11,T3_M11,T4_M11,T5_M11,U1_M11,ZSPAN_M11,X0_M11,X2_M11,X1_M11
2023-04-06 21:00:00,,0833.7,5.00,0.00,22.1,20.8,00.0,30.4,23.7,06.9,0000.0,0008.29,0002.84,0001.95
2023-04-06 21:01:00,,0833.7,5.00,0.00,22.2,20.8,00.0,30.4,23.7,07.4,0000.0,0008.25,0002.83,0001.96
2023-04-06 21:02:00,,0833.7,5.00,0.00,22.2,20.9,00.0,30.4,23.7,06.8,0000.0,0007.86,0002.78,0001.97
2023-04-06 21:03:00,,0833.8,4.99,0.00,22.2,20.9,00.0,30.4,23.7,06.9,0000.0,0007.90,0002.78,0001.99
2023-04-06 21:04:00,,0833.8,4.99,0.00,22.2,20.9,00.0,30.5,23.7,07.0,0000.0,0007.98,0002.82,0001.99
2023-04-06 21:05:00,,0833.7,4.99,0.00,22.2,20.9,00.0,30.5,23.7,06.9,0000.0,0007.35,0002.80,0002.00
2023-04-06 21:06:00,,0833.7,5.00,0.00,22.2,20.9,00.0,30.5,23.7,06.7,0000.0,0006.89,0002.78,0002.03
2023-04-06 21:07:00,,0833.7,5.01,0.00,22.2,20.8,00.0,30.5,23.6,06.6,0000.0,0007.04,0002.75,0002.05
2023-04-06 21:08:00,,0833.7,4.99,0.00,22.1,20.7,00.0,30.5,23.6,06.8,0000.0,0006.30,0002.80,0002.09
2023-04-06 21:09:00,,0833.7,5.00,0.00,22.1,20.7,00.0,30.5,23.6,06.9,0000.0,0005.58,0002.84,0002.11
2023-04-06 21:10:00,,0833.7,5.00,0.00,22.1,20.7,00.0,30.5,23.6,06.6,0000.0,0005.25,0002.85,0002.12
2023-04-06 21:11:00,,0833.7,4.99,0.00,22.1,20.7,00.0,30.5,23.6,05.9,0000.0,0006.18,0002.99,0002.18
2023-04-06 21:12:00,,0833.6,5.01,0.00,22.1,20.7,00.0,30.5,23.6,05.9,0000.0,0007.16,0003.13,0002.24
2023-04-06 21:13:00,,0833.7,5.01,0.00,22.1,20.7,00.0,30.5,23.6,06.3,0000.0,0007.58,0003.19,0002.27
2023-04-06 21:14:00,,0833.7,4.99,0.00,22.1,20.7,00.0,30.5,23.7,05.9,0000.0,0007.67,0003.25,0002.32
2023-04-06 21:15:00,,0833.7,5.00,0.00,22.1,20.7,00.0,30.5,23.7,06.0,0000.0,0007.77,0003.33,0002.39
2023-04-06 21:16:00,,0833.7,5.00,0.00,22.1,20.7,00.0,30.5,23.7,06.0,0000.0,0007.95,0003.39,0002.43
2023-04-06 21:17:00,,0833.6,5.00,0.00,22.1,20.7,00.0,30.5,23.7,06.3,0000.0,0007.95,0003.42,0002.47
2023-04-06 21:18:00,,0833.7,5.01,0.00,22.2,20.8,00.0,30.5,23.7,06.7,0000.0,0007.97,0003.46,0002.51
2023-04-06 21:19:00,,0833.7,5.01,0.00,22.2,20.8,00.0,30.5,23.7,07.4,0000.0,0008.35,0003.44,0002.51
2023-04-06 21:20:00,,0833.6,5.00,0.00,22.2,20.8,00.0,30.5,23.7,06.7,0000.0,0008.37,0003.40,0002.50
2023-04-06 21:21:00,,0833.6,5.01,0.00,22.2,20.7,00.0,30.5,23.7,07.0,0000.0,0008.35,0003.39,0002.49
2023-04-06 21:22:00,,0833.6,4.99,0.00,22.2,20.8,00.0,30.5,23.7,07.5,0000.0,0007.95,0003.36,0002.45
2023-04-06 21:23:00,,0833.6,5.00,0.00,22.2,20.8,00.0,30.5,23.7,07.4,0000.0,0007.53,0003.32,0002.40
2023-04-06 21:24:00,,0833.6,5.00,0.00,22.2,20.8,00.0,30.5,23.8,06.9,0000.0,0007.38,0003.30,0002.38
2023-04-06 21:25:00,,0833.5,5.00,0.00,22.2,20.8,00.0,30.5,23.8,06.8,0000.0,0007.34,0003.26,0002.35
2023-04-06 21:26:00,,0833.5,5.01,0.00,22.2,20.9,00.0,30.5,23.8,07.1,0000.0,0007.13,0003.17,0002.30
2023-04-06 21:27:00,,0833.5,5.01,0.00,22.2,20.9,00.0,30.5,23.8,06.9,0000.0,0007.10,0003.14,0002.26
2023-04-06 21:28:00,,0833.5,4.98,0.00,22.2,20.9,00.0,30.5,23.8,06.9,0000.0,0007.04,0003.14,0002.23
2023-04-06 21:29:00,,0833.5,5.00,0.00,22.2,20.9,00.0,30.5,23.8,06.9,0000.0,0006.85,0003.14,0002.20
2023-04-06 21:30:00,,0833.5,5.01,0.00,22.2,20.9,00.0,30.5,23.7,06.8,0000.0,0006.41,0003.15,0002.19
2023-04-06 21:31:00,,0833.5,4.98,0.00,22.2,20.8,00.0,30.5,23.7,06.4,0000.0,0007.97,0003.21,0002.21
2023-04-06 21:32:00,,0833.5,5.00,0.00,22.2,20.8,00.0,30.5,23.7,06.6,0000.0,0008.38,0003.24,0002.23
2023-04-06 21:33:00,,0833.4,5.01,0.00,22.2,20.7,00.0,30.5,23.7,06.6,0000.0,0008.19,0003.21,0002.24
2023-04-06 21:34:00,,0833.4,5.00,0.00,22.2,20.8,00.0,30.5,23.8,06.7,0000.0,0008.06,0003.21,0002.27
2023-04-06 21:35:00,,0833.5,4.99,0.00,22.2,20.8,00.0,30.5,23.8,06.8,0000.0,0007.98,0003.19,0002.28
2023-04-06 21:36:00,,0833.4,5.01,0.00,22.2,20.9,00.0,30.5,23.8,06.7,0000.0,0007.96,0003.21,0002.30
2023-04-06 21:37:00,,0833.4,5.01,0.00,22.2,20.9,00.0,30.5,23.8,06.3,0000.0,0008.05,0003.24,0002.36
2023-04-06 21:38:00,,0833.5,5.00,0.00,22.2,20.8,00.0,30.5,23.8,06.0,0000.0,0008.20,0003.29,0002.41
2023-04-06 21:39:00,,0833.4,4.99,0.00,22.2,20.8,00.0,30.5,23.8,06.0,0000.0,0008.64,0003.32,0002.47
2023-04-06 21:40:00,,0833.4,5.01,0.00,22.2,20.8,00.0,30.6,23.8,05.7,0000.0,0008.64,0003.33,0002.51
2023-04-06 21:41:00,,0833.4,5.01,0.00,22.2,20.9,00.0,30.6,23.8,05.9,0000.0,0008.65,0003.38,0002.55
2023-04-06 21:42:00,,0833.4,4.99,0.00,22.2,20.9,00.0,30.6,23.8,05.8,0000.0,0007.57,0003.45,0002.58
2023-04-06 21:43:00,,0833.4,4.99,0.00,22.3,20.9,00.0,30.6,23.8,05.0,0000.0,0007.44,0003.52,0002.65
2023-04-06 21:44:00,,0833.4,5.01,0.00,22.3,20.9,00.0,30.6,23.8,05.1,0000.0,0007.59,0003.58,0002.72
2023-04-06 21:45:00,,0833.4,5.01,0.00,22.3,20.9,00.0,30.6,23.9,04.9,0000.0,0007.71,0003.64,0002.80
2023-04-06 21:46:00,,0833.4,4.99,0.00,22.3,20.9,00.0,30.6,23.9,04.9,0000.0,0008.07,0003.74,0002.90
2023-04-06 21:47:00,,0833.4,4.99,0.00,22.3,20.9,00.0,30.6,23.9,05.1,0000.0,0008.20,0003.83,0002.96
2023-04-06 21:48:00,,0833.4,5.01,0.00,22.3,21.0,00.0,30.6,23.9,04.8,0000.0,0008.24,0003.90,0003.00
2023-04-06 21:49:00,,0833.4,5.00,0.00,22.3,21.0,00.0,30.6,23.9,04.7,0000.0,0008.13,0003.90,0003.05
2023-04-06 21:50:00,,0833.4,4.99,0.00,22.3,21.1,00.0,30.6,23.9,04.5,0000.0,0008.01,0003.94,0003.10
2023-04-06 21:51:00,,0833.3,5.01,0.00,22.4,21.1,00.0,30.6,24.0,04.8,0000.0,0008.97,0004.00,0003.12
2023-04-06 21:52:00,,0833.3,5.01,0.00,22.4,21.2,00.0,30.6,24.0,05.6,0000.0,0009.17,0004.05,0003.15
2023-04-06 21:53:00,,0833.4,5.00,0.00,22.4,21.2,00.0,30.7,24.0,05.0,0000.0,0009.17,0004.05,0003.17
2023-04-06 21:54:00,,0833.4,5.00,0.00,22.4,21.2,00.0,30.7,24.0,05.3,0000.0,0009.07,0004.02,0003.19
2023-04-06 21:55:00,,0833.4,5.00,0.00,22.4,21.3,00.0,30.7,24.0,05.3,0000.0,0009.03,0004.03,0003.20
2023-04-06 21:56:00,,0833.4,5.00,0.00,22.4,21.3,00.0,30.7,24.0,05.6,0000.0,0009.07,0004.01,0003.19
2023-04-06 21:57:00,,0833.4,5.00,0.00,22.4,21.2,00.0,30.7,24.0,05.3,0000.0,0008.83,0003.95,0003.16
2023-04-06 21:58:00,,0833.3,5.01,0.00,22.4,21.2,00.0,30.7,24.0,05.5,0000.0,0008.95,0003.91,0003.14
2023-04-06 21:59:00,,0833.3,5.00,0.00,22.5,21.2,00.0,30.7,24.0,05.4,0000.0,0009.36,0003.91,0003.11
